Time,TemperatureF,DewpointF,PressureIn,WindDirection,WindDirectionDegrees,WindSpeedMPH,WindSpeedGustMPH,Humidity,HourlyPrecipIn,Conditions,Clouds,dailyrainin,SoftwareType,DateUTC
2013-03-03 00:02:00,26.0,18.0,30.30,SSE,156,0.0,3.0,72,0.00,,,0.00,,2013-03-03 06:02:00,
2013-03-03 00:11:00,26.0,18.0,30.30,SSE,156,0.0,3.0,72,0.00,,,0.00,,2013-03-03 06:11:00,
2013-03-03 00:21:00,26.0,18.0,30.29,SSE,156,0.0,3.0,72,0.00,,,0.00,,2013-03-03 06:21:00,
2013-03-03 00:31:00,26.0,18.0,30.29,SSE,156,0.0,3.0,72,0.00,,,0.00,,2013-03-03 06:31:00,
2013-03-03 00:42:00,26.0,18.0,30.29,SSE,156,0.0,3.0,72,0.00,,,0.00,,2013-03-03 06:42:00,
2013-03-03 00:52:00,26.0,19.0,30.29,SSE,156,0.0,0.0,73,0.00,,,0.00,,2013-03-03 06:52:00,
2013-03-03 01:01:00,26.0,19.0,30.29,SSE,157,0.0,2.0,73,0.00,,,0.00,,2013-03-03 07:01:00,
2013-03-03 01:11:00,26.0,19.0,30.29,SSE,157,0.0,2.0,73,0.00,,,0.00,,2013-03-03 07:11:00,
2013-03-03 01:21:00,26.0,19.0,30.28,SE,142,1.0,4.0,74,0.00,,,0.00,,2013-03-03 07:21:00,
2013-03-03 01:31:00,25.0,18.0,30.28,SE,142,0.0,3.0,74,0.00,,,0.00,,2013-03-03 07:31:00,
2013-03-03 01:42:00,25.0,18.0,30.28,SE,142,0.0,3.0,74,0.00,,,0.00,,2013-03-03 07:42:00,
2013-03-03 01:52:00,25.0,18.0,30.27,SE,144,1.0,4.0,74,0.00,,,0.00,,2013-03-03 07:52:00,
2013-03-03 02:01:00,25.0,18.0,30.27,SE,145,0.0,3.0,74,0.00,,,0.00,,2013-03-03 08:01:00,
2013-03-03 02:11:00,25.0,18.0,30.27,SE,145,0.0,3.0,74,0.00,,,0.00,,2013-03-03 08:11:00,
2013-03-03 02:21:00,25.0,18.0,30.25,SE,141,2.0,5.0,74,0.00,,,0.00,,2013-03-03 08:21:00,
2013-03-03 02:31:00,25.0,18.0,30.25,SE,134,0.0,5.0,75,0.00,,,0.00,,2013-03-03 08:31:00,
2013-03-03 02:41:00,25.0,18.0,30.25,SE,134,0.0,5.0,75,0.00,,,0.00,,2013-03-03 08:41:00,
2013-03-03 02:54:00,24.0,17.0,30.24,SSE,160,0.0,4.0,75,0.00,,,0.00,,2013-03-03 08:54:00,
2013-03-03 03:01:00,24.0,17.0,30.24,SSE,148,0.0,4.0,75,0.00,,,0.00,,2013-03-03 09:01:00,
2013-03-03 03:11:00,24.0,17.0,30.24,SSE,148,0.0,4.0,75,0.00,,,0.00,,2013-03-03 09:11:00,
2013-03-03 03:21:00,24.0,18.0,30.23,SSE,159,1.0,5.0,76,0.00,,,0.00,,2013-03-03 09:21:00,
2013-03-03 03:32:00,24.0,18.0,30.22,SSE,150,2.0,6.0,76,0.00,,,0.00,,2013-03-03 09:32:00,
2013-03-03 03:41:00,24.0,18.0,30.22,SSE,150,2.0,6.0,76,0.00,,,0.00,,2013-03-03 09:41:00,
2013-03-03 03:52:00,23.0,17.0,30.22,SE,140,3.0,8.0,76,0.00,,,0.00,,2013-03-03 09:52:00,
2013-03-03 04:01:00,23.0,17.0,30.22,ESE,119,3.0,6.0,77,0.00,,,0.00,,2013-03-03 10:01:00,
2013-03-03 04:11:00,23.0,17.0,30.22,ESE,119,3.0,6.0,77,0.00,,,0.00,,2013-03-03 10:11:00,
2013-03-03 04:21:00,23.0,17.0,30.21,SE,139,4.0,7.0,77,0.00,,,0.00,,2013-03-03 10:21:00,
2013-03-03 04:32:00,23.0,17.0,30.21,SE,140,2.0,4.0,78,0.00,,,0.00,,2013-03-03 10:32:00,
2013-03-03 04:42:00,23.0,17.0,30.21,SE,140,2.0,4.0,78,0.00,,,0.00,,2013-03-03 10:42:00,
2013-03-03 04:52:00,23.0,17.0,30.21,SSE,150,1.0,7.0,77,0.00,,,0.00,,2013-03-03 10:52:00,
2013-03-03 05:01:00,23.0,17.0,30.20,SSE,149,2.0,5.0,77,0.00,,,0.00,,2013-03-03 11:01:00,
2013-03-03 05:11:00,23.0,17.0,30.20,SSE,149,2.0,5.0,77,0.00,,,0.00,,2013-03-03 11:11:00,
2013-03-03 05:21:00,23.0,17.0,30.20,SE,137,3.0,8.0,77,0.00,,,0.00,,2013-03-03 11:21:00,
2013-03-03 05:32:00,23.0,17.0,30.19,SE,136,3.0,7.0,77,0.00,,,0.00,,2013-03-03 11:32:00,
2013-03-03 05:42:00,23.0,17.0,30.19,SE,136,3.0,7.0,77,0.00,,,0.00,,2013-03-03 11:42:00,
2013-03-03 05:52:00,23.0,17.0,30.19,SE,136,3.0,7.0,77,0.00,,,0.00,,2013-03-03 11:52:00,
2013-03-03 06:01:00,22.0,16.0,30.18,SE,130,4.0,8.0,77,0.00,,,0.00,,2013-03-03 12:01:00,
2013-03-03 06:11:00,22.0,16.0,30.18,SE,130,4.0,8.0,77,0.00,,,0.00,,2013-03-03 12:11:00,
2013-03-03 06:21:00,22.0,16.0,30.18,SE,132,3.0,6.0,78,0.00,,,0.00,,2013-03-03 12:21:00,
2013-03-03 06:32:00,22.0,16.0,30.18,ESE,122,3.0,6.0,78,0.00,,,0.00,,2013-03-03 12:32:00,
2013-03-03 06:42:00,22.0,16.0,30.18,ESE,122,3.0,6.0,78,0.00,,,0.00,,2013-03-03 12:42:00,
2013-03-03 06:52:00,23.0,17.0,30.18,SE,146,1.0,7.0,78,0.00,,,0.00,,2013-03-03 12:52:00,
2013-03-03 07:01:00,23.0,17.0,30.18,ESE,121,4.0,6.0,78,0.00,,,0.00,,2013-03-03 13:01:00,
2013-03-03 07:11:00,23.0,17.0,30.18,ESE,121,4.0,6.0,78,0.00,,,0.00,,2013-03-03 13:11:00,
2013-03-03 07:21:00,23.0,17.0,30.17,SE,136,2.0,8.0,78,0.00,,,0.00,,2013-03-03 13:21:00,
2013-03-03 07:32:00,23.0,17.0,30.17,East,98,5.0,9.0,78,0.00,,,0.00,,2013-03-03 13:32:00,
2013-03-03 07:42:00,23.0,17.0,30.17,East,98,5.0,9.0,78,0.00,,,0.00,,2013-03-03 13:42:00,
2013-03-03 07:51:00,23.0,17.0,30.17,East,98,5.0,9.0,78,0.00,,,0.00,,2013-03-03 13:51:00,
2013-03-03 08:02:00,23.0,17.0,30.16,SSE,155,4.0,10.0,77,0.00,,,0.00,,2013-03-03 14:02:00,
2013-03-03 08:11:00,23.0,17.0,30.16,SSE,155,4.0,10.0,77,0.00,,,0.00,,2013-03-03 14:11:00,
2013-03-03 08:21:00,24.0,18.0,30.16,ESE,122,3.0,8.0,77,0.00,,,0.00,,2013-03-03 14:21:00,
2013-03-03 08:32:00,24.0,18.0,30.16,SSE,159,4.0,9.0,76,0.00,,,0.00,,2013-03-03 14:32:00,
2013-03-03 08:42:00,24.0,18.0,30.16,SSE,159,4.0,9.0,76,0.00,,,0.00,,2013-03-03 14:42:00,
2013-03-03 08:52:00,24.0,18.0,30.16,SSE,159,4.0,9.0,76,0.00,,,0.00,,2013-03-03 14:52:00,
2013-03-03 09:01:00,27.0,20.0,30.15,SSE,148,5.0,10.0,73,0.00,,,0.00,,2013-03-03 15:01:00,
2013-03-03 09:11:00,27.0,20.0,30.15,SSE,148,5.0,10.0,73,0.00,,,0.00,,2013-03-03 15:11:00,
2013-03-03 09:22:00,27.0,20.0,30.15,SSE,148,5.0,10.0,73,0.00,,,0.00,,2013-03-03 15:22:00,
2013-03-03 09:32:00,30.0,21.0,30.14,SE,144,4.0,9.0,69,0.00,,,0.00,,2013-03-03 15:32:00,
2013-03-03 09:42:00,30.0,21.0,30.14,SE,144,4.0,9.0,69,0.00,,,0.00,,2013-03-03 15:42:00,
2013-03-03 09:52:00,30.0,20.0,30.14,SE,125,4.0,9.0,67,0.00,,,0.00,,2013-03-03 15:52:00,
2013-03-03 10:01:00,31.0,21.0,30.13,SE,133,4.0,10.0,67,0.00,,,0.00,,2013-03-03 16:01:00,
2013-03-03 10:12:00,31.0,21.0,30.13,SE,133,4.0,10.0,67,0.00,,,0.00,,2013-03-03 16:12:00,
2013-03-03 10:21:00,33.0,23.0,30.12,SSE,160,4.0,9.0,65,0.00,,,0.00,,2013-03-03 16:21:00,
2013-03-03 10:32:00,34.0,23.0,30.11,ESE,109,5.0,11.0,63,0.00,,,0.00,,2013-03-03 16:32:00,
2013-03-03 10:42:00,34.0,23.0,30.11,ESE,109,5.0,11.0,63,0.00,,,0.00,,2013-03-03 16:42:00,
2013-03-03 10:52:00,35.0,23.0,30.11,SE,125,4.0,13.0,62,0.00,,,0.00,,2013-03-03 16:52:00,
2013-03-03 11:01:00,35.0,23.0,30.11,ESE,123,7.0,11.0,62,0.00,,,0.00,,2013-03-03 17:01:00,
2013-03-03 11:11:00,35.0,23.0,30.09,SE,144,6.0,11.0,61,0.00,,,0.00,,2013-03-03 17:11:00,
2013-03-03 11:22:00,35.0,23.0,30.09,SE,144,6.0,11.0,61,0.00,,,0.00,,2013-03-03 17:22:00,
2013-03-03 11:32:00,36.0,23.0,30.09,ESE,119,6.0,13.0,60,0.00,,,0.00,,2013-03-03 17:32:00,
2013-03-03 11:42:00,36.0,23.0,30.09,ESE,119,6.0,13.0,60,0.00,,,0.00,,2013-03-03 17:42:00,
2013-03-03 11:52:00,36.0,23.0,30.09,ESE,119,6.0,13.0,60,0.00,,,0.00,,2013-03-03 17:52:00,
2013-03-03 12:01:00,36.0,24.0,30.08,ESE,115,4.0,12.0,61,0.00,,,0.00,,2013-03-03 18:01:00,
2013-03-03 12:11:00,36.0,24.0,30.08,ESE,115,4.0,12.0,61,0.00,,,0.00,,2013-03-03 18:11:00,
2013-03-03 12:21:00,37.0,24.0,30.07,ESE,113,4.0,8.0,59,0.00,,,0.00,,2013-03-03 18:21:00,
2013-03-03 12:32:00,38.0,25.0,30.07,SSE,155,3.0,12.0,60,0.00,,,0.00,,2013-03-03 18:32:00,
2013-03-03 12:42:00,38.0,25.0,30.07,SSE,155,3.0,12.0,60,0.00,,,0.00,,2013-03-03 18:42:00,
2013-03-03 12:52:00,38.0,25.0,30.06,SE,142,4.0,8.0,59,0.00,,,0.00,,2013-03-03 18:52:00,
2013-03-03 13:02:00,38.0,25.0,30.06,SE,142,4.0,8.0,59,0.00,,,0.00,,2013-03-03 19:02:00,
2013-03-03 13:11:00,38.0,25.0,30.06,SE,142,4.0,8.0,59,0.00,,,0.00,,2013-03-03 19:11:00,
2013-03-03 13:21:00,38.0,25.0,30.03,SE,128,6.0,12.0,59,0.00,,,0.00,,2013-03-03 19:21:00,
2013-03-03 13:32:00,38.0,25.0,30.03,SE,134,5.0,11.0,59,0.00,,,0.00,,2013-03-03 19:32:00,
2013-03-03 13:42:00,38.0,25.0,30.03,SE,134,5.0,11.0,59,0.00,,,0.00,,2013-03-03 19:42:00,
2013-03-03 13:51:00,38.0,25.0,30.02,SE,137,6.0,12.0,59,0.00,,,0.00,,2013-03-03 19:51:00,
2013-03-03 14:01:00,38.0,25.0,30.01,ESE,119,6.0,12.0,59,0.00,,,0.00,,2013-03-03 20:01:00,
2013-03-03 14:11:00,38.0,25.0,30.01,ESE,119,6.0,12.0,59,0.00,,,0.00,,2013-03-03 20:11:00,
2013-03-03 14:21:00,39.0,26.0,30.00,ESE,103,5.0,10.0,59,0.00,,,0.00,,2013-03-03 20:21:00,
2013-03-03 14:32:00,39.0,25.0,29.99,SSE,161,5.0,11.0,58,0.00,,,0.00,,2013-03-03 20:32:00,
2013-03-03 14:42:00,39.0,25.0,29.99,SSE,161,5.0,11.0,58,0.00,,,0.00,,2013-03-03 20:42:00,
2013-03-03 14:52:00,39.0,25.0,29.99,ESE,123,5.0,10.0,58,0.00,,,0.00,,2013-03-03 20:52:00,
2013-03-03 15:02:00,39.0,25.0,29.98,ESE,111,7.0,11.0,57,0.00,,,0.00,,2013-03-03 21:02:00,
2013-03-03 15:11:00,39.0,25.0,29.98,ESE,111,7.0,11.0,57,0.00,,,0.00,,2013-03-03 21:11:00,
2013-03-03 15:22:00,40.0,26.0,29.97,ESE,121,5.0,10.0,58,0.00,,,0.00,,2013-03-03 21:22:00,
2013-03-03 15:32:00,40.0,26.0,29.97,SE,137,6.0,16.0,57,0.00,,,0.00,,2013-03-03 21:32:00,
2013-03-03 15:42:00,40.0,26.0,29.97,SE,137,6.0,16.0,57,0.00,,,0.00,,2013-03-03 21:42:00,
2013-03-03 15:52:00,40.0,26.0,29.96,ESE,108,7.0,14.0,58,0.00,,,0.00,,2013-03-03 21:52:00,
2013-03-03 16:01:00,40.0,26.0,29.96,ESE,113,5.0,9.0,58,0.00,,,0.00,,2013-03-03 22:01:00,
2013-03-03 16:11:00,40.0,26.0,29.96,ESE,113,5.0,9.0,58,0.00,,,0.00,,2013-03-03 22:11:00,
2013-03-03 16:22:00,40.0,27.0,29.96,ESE,122,3.0,7.0,59,0.00,,,0.00,,2013-03-03 22:22:00,
2013-03-03 16:32:00,39.0,26.0,29.96,East,94,4.0,12.0,59,0.00,,,0.00,,2013-03-03 22:32:00,
2013-03-03 16:42:00,39.0,26.0,29.96,East,94,4.0,12.0,59,0.00,,,0.00,,2013-03-03 22:42:00,
2013-03-03 16:52:00,39.0,26.0,29.96,ESE,122,2.0,10.0,60,0.00,,,0.00,,2013-03-03 22:52:00,
2013-03-03 17:01:00,39.0,26.0,29.96,ESE,109,2.0,10.0,60,0.00,,,0.00,,2013-03-03 23:01:00,
2013-03-03 17:11:00,39.0,26.0,29.96,ESE,109,2.0,10.0,60,0.00,,,0.00,,2013-03-03 23:11:00,
2013-03-03 17:21:00,39.0,26.0,29.95,SE,126,3.0,9.0,60,0.00,,,0.00,,2013-03-03 23:21:00,
2013-03-03 17:32:00,39.0,27.0,29.95,ESE,117,3.0,10.0,61,0.00,,,0.00,,2013-03-03 23:32:00,
2013-03-03 17:42:00,39.0,27.0,29.95,ESE,117,3.0,10.0,61,0.00,,,0.00,,2013-03-03 23:42:00,
2013-03-03 17:52:00,38.0,26.0,29.95,ENE,76,4.0,9.0,61,0.00,,,0.00,,2013-03-03 23:52:00,
2013-03-03 18:01:00,38.0,26.0,29.94,ESE,105,4.0,10.0,62,0.00,,,0.00,,2013-03-04 00:01:00,
2013-03-03 18:11:00,38.0,26.0,29.94,ESE,105,4.0,10.0,62,0.00,,,0.00,,2013-03-04 00:11:00,
2013-03-03 18:21:00,38.0,27.0,29.93,SE,126,6.0,12.0,63,0.00,,,0.00,,2013-03-04 00:21:00,
2013-03-03 18:32:00,37.0,26.0,29.93,SE,128,7.0,13.0,63,0.00,,,0.00,,2013-03-04 00:32:00,
2013-03-03 18:42:00,37.0,26.0,29.93,SE,128,7.0,13.0,63,0.00,,,0.00,,2013-03-04 00:42:00,
2013-03-03 18:52:00,37.0,26.0,29.92,East,80,4.0,13.0,63,0.00,,,0.00,,2013-03-04 00:52:00,
2013-03-03 19:01:00,37.0,26.0,29.91,ESE,121,3.0,10.0,64,0.00,,,0.00,,2013-03-04 01:01:00,
2013-03-03 19:11:00,37.0,26.0,29.91,ESE,121,3.0,10.0,64,0.00,,,0.00,,2013-03-04 01:11:00,
2013-03-03 19:21:00,37.0,26.0,29.91,ESE,114,6.0,13.0,64,0.00,,,0.00,,2013-03-04 01:21:00,
2013-03-03 19:32:00,37.0,26.0,29.91,SE,130,5.0,10.0,63,0.00,,,0.00,,2013-03-04 01:32:00,
2013-03-03 19:42:00,37.0,26.0,29.91,SE,130,5.0,10.0,63,0.00,,,0.00,,2013-03-04 01:42:00,
2013-03-03 19:51:00,38.0,27.0,29.92,ESE,118,7.0,14.0,63,0.00,,,0.00,,2013-03-04 01:51:00,
2013-03-03 20:01:00,38.0,26.0,29.93,ENE,74,4.0,12.0,62,0.00,,,0.00,,2013-03-04 02:01:00,
2013-03-03 20:11:00,38.0,26.0,29.93,ENE,74,4.0,12.0,62,0.00,,,0.00,,2013-03-04 02:11:00,
2013-03-03 20:22:00,37.0,26.0,29.92,East,88,6.0,11.0,63,0.00,,,0.00,,2013-03-04 02:22:00,
2013-03-03 20:32:00,37.0,26.0,29.91,SE,134,6.0,14.0,63,0.00,,,0.00,,2013-03-04 02:32:00,
2013-03-03 20:42:00,37.0,26.0,29.91,SE,134,6.0,14.0,63,0.00,,,0.00,,2013-03-04 02:42:00,
2013-03-03 20:52:00,37.0,26.0,29.91,ESE,115,7.0,13.0,64,0.00,,,0.00,,2013-03-04 02:52:00,
2013-03-03 21:01:00,37.0,26.0,29.91,SE,132,6.0,12.0,64,0.00,,,0.00,,2013-03-04 03:01:00,
2013-03-03 21:11:00,37.0,26.0,29.91,SE,132,6.0,12.0,64,0.00,,,0.00,,2013-03-04 03:11:00,
2013-03-03 21:21:00,37.0,26.0,29.92,ENE,78,5.0,13.0,64,0.00,,,0.00,,2013-03-04 03:21:00,
2013-03-03 21:32:00,36.0,25.0,29.91,ESE,109,7.0,12.0,64,0.00,,,0.00,,2013-03-04 03:32:00,
2013-03-03 21:42:00,36.0,25.0,29.90,ESE,105,6.0,11.0,65,0.00,,,0.00,,2013-03-04 03:42:00,
2013-03-03 21:52:00,36.0,25.0,29.90,ESE,105,6.0,11.0,65,0.00,,,0.00,,2013-03-04 03:52:00,
2013-03-03 22:01:00,36.0,25.0,29.90,SE,126,6.0,12.0,65,0.00,,,0.00,,2013-03-04 04:01:00,
2013-03-03 22:11:00,36.0,25.0,29.90,SE,126,6.0,12.0,65,0.00,,,0.00,,2013-03-04 04:11:00,
2013-03-03 22:22:00,36.0,25.0,29.89,ESE,110,7.0,14.0,64,0.00,,,0.00,,2013-03-04 04:22:00,
2013-03-03 22:32:00,36.0,25.0,29.89,ESE,110,7.0,14.0,64,0.00,,,0.00,,2013-03-04 04:32:00,
2013-03-03 22:42:00,36.0,25.0,29.89,ESE,110,7.0,14.0,64,0.00,,,0.00,,2013-03-04 04:42:00,
2013-03-03 22:51:00,37.0,26.0,29.88,East,88,7.0,13.0,64,0.00,,,0.00,,2013-03-04 04:51:00,
2013-03-03 23:01:00,37.0,26.0,29.88,ESE,116,6.0,10.0,65,0.00,,,0.00,,2013-03-04 05:01:00,
2013-03-03 23:11:00,37.0,26.0,29.88,ESE,116,6.0,10.0,65,0.00,,,0.00,,2013-03-04 05:11:00,
2013-03-03 23:22:00,36.0,25.0,29.87,ESE,111,5.0,12.0,65,0.00,,,0.00,,2013-03-04 05:22:00,
2013-03-03 23:32:00,36.0,25.0,29.87,ESE,111,5.0,13.0,65,0.00,,,0.00,,2013-03-04 05:32:00,
2013-03-03 23:42:00,36.0,25.0,29.87,ESE,111,5.0,13.0,65,0.00,,,0.00,,2013-03-04 05:42:00,
2013-03-03 23:52:00,37.0,26.0,29.86,SE,134,5.0,13.0,65,0.00,,,0.00,,2013-03-04 05:52:00,